Stations météo

réclame
Mon MeteoGroup
Arjeplog, Suède (2124): Température de l'air & dewpoint: 17.04.2018 03:00:00 - 23.04.2018 03:00:00 (CEST)Arjeplog, Suède (2124): Vitesse du vent & gusts: 17.04.2018 03:00:00 - 23.04.2018 03:00:00 (CEST)Arjeplog, Suède (2124): Direction du vent: 17.04.2018 03:00:00 - 23.04.2018 03:00:00 (CEST)Arjeplog, Suède (2124): reduced air pressure: 17.04.2018 03:00:00 - 23.04.2018 03:00:00 (CEST)Arjeplog, Suède (2124): visibility: 17.04.2018 03:00:00 - 23.04.2018 03:00:00 (CEST)Arjeplog, Suède (2124): Quantités de précipitations: 17.04.2018 03:00:00 - 23.04.2018 03:00:00 (CEST)
Date & Time tt [°C] td [°C] ff [km/h] ff [knt] fx [km/h] fx [knt] dd ppp [hPa] vv [km] rr [mm]
23.04.2018 03:00:00 -0,5 -1,6 2 1 7 4 ESE 1012,1 50 0,0
23.04.2018 02:00:00 -0,2 -1,5 2 1 5 3 E 1012,7 50 0,0
23.04.2018 01:00:00 -0,2 -1,3 0 0 4 2 N 1013,1 50 0,0
23.04.2018 00:00:00 -1,7 -2,4 3 2 7 4 ENE 1013,5 50 0,0
22.04.2018 23:00:00 -1,3 -2,3 0 0 2 1 N 1013,8 50 0,0
22.04.2018 22:00:00 0,2 -1,7 0 0 4 2 N 1013,8 49 0,0
22.04.2018 21:00:00 2,2 -1,1 0 0 3 2 N 1013,4 50 0,0
22.04.2018 20:00:00 4,6 -1,2 2 1 8 4 ENE 1012,8 50 0,0
22.04.2018 19:00:00 7,4 -1,1 4 2 12 6 NW 1012,4 50 0,0
22.04.2018 18:00:00 7,3 -1,1 5 3 13 7 NNW 1012,4 46 0,0
22.04.2018 17:00:00 8,0 -0,7 6 4 16 9 NNW 1012,3 38 0,0
22.04.2018 16:00:00 7,9 -0,8 8 4 18 10 N 1012,4 43 0,0
22.04.2018 15:00:00 8,0 -1,0 7 4 16 9 NNW 1012,5 38 0,0
22.04.2018 14:00:00 7,7 -0,8 6 3 16 9 N 1012,4 37 0,0
22.04.2018 13:00:00 7,3 -0,7 8 5 14 8 NNE 1012,4 32 0,0
22.04.2018 12:00:00 7,4 -1,1 8 5 15 8 WNW 1012,2 50 0,0
22.04.2018 11:00:00 6,9 -0,3 8 5 15 8 NW 1012,1 38 0,0
22.04.2018 10:00:00 5,2 0,0 6 3 14 8 WSW 1012,1 42 0,0
22.04.2018 09:00:00 3,9 0,4 6 3 10 6 SW 1011,9 50 0,0
22.04.2018 08:00:00 1,9 0,1 7 4 11 6 SSW 1012,0 48 0,0
22.04.2018 07:00:00 1,3 0,3 3 2 8 4 S 1011,6 44 0,0
22.04.2018 06:00:00 -0,6 -0,9 0 0 5 3 N 1011,3 50 0,0
22.04.2018 05:00:00 0,2 -0,2 3 1 5 3 ESE 1011,0 50 0,0
22.04.2018 04:00:00 0,5 0,1 3 1 6 3 SSW 1010,5 50 0,0
22.04.2018 03:00:00 0,4 0,1 0 0 4 2 N 1009,9 50 0,0
22.04.2018 02:00:00 0,3 0,0 2 1 4 2 WSW 1009,3 50 0,0
22.04.2018 01:00:00 0,3 -0,1 0 0 5 3 N 1008,6 29 0,0
22.04.2018 00:00:00 0,6 -0,1 2 1 6 3 NNE 1007,6 19 0,0
21.04.2018 23:00:00 0,4 -0,2 0 0 8 5 N 1006,7 27 0,0
21.04.2018 22:00:00 0,8 0,1 3 2 14 8 NE 1005,7 37 0,0
21.04.2018 21:00:00 0,9 0,0 4 2 8 5 ENE 1004,7 50 0,0
21.04.2018 20:00:00 2,0 1,4 3 2 9 5 NNE 1003,5 9 0,0
21.04.2018 19:00:00 3,2 1,4 6 3 13 7 N 1002,5 15 0,0
21.04.2018 18:00:00 4,6 1,1 5 3 13 7 WSW 1001,3 50 0,0
21.04.2018 17:00:00 4,7 1,0 5 3 10 5 WSW 1000,8 49 0,0
21.04.2018 16:00:00 4,2 1,6 6 4 14 8 WSW 1000,6 18 0,0
21.04.2018 15:00:00 4,3 1,3 7 4 14 8 WSW 1000,2 34 0,0
21.04.2018 14:00:00 4,0 1,4 8 5 16 9 WSW 999,9 30 0,4
21.04.2018 13:00:00 4,0 1,7 8 4 14 7 S 999,6 15 0,0
21.04.2018 12:00:00 5,2 0,8 5 3 11 6 E 998,9 50 0,2
21.04.2018 11:00:00 4,2 1,1 4 2 7 4 SW 998,7 17 0,0
21.04.2018 10:00:00 3,6 1,5 5 3 9 5 WSW 998,3 10 0,0
21.04.2018 09:00:00 3,4 1,3 4 2 11 6 SSW 998,0 34 0,2
21.04.2018 08:00:00 2,6 1,1 7 4 13 7 S 998,2 15 0,0
21.04.2018 07:00:00 2,3 1,0 6 3 11 6 S 998,4 16 0,0
21.04.2018 06:00:00 2,2 1,0 6 4 11 6 S 998,7 50 0,0
21.04.2018 05:00:00 2,0 1,3 3 2 6 3 SSE 999,1 44 0,3
21.04.2018 04:00:00 2,0 1,1 4 2 21 12 SSW 999,9 9 0,2
21.04.2018 03:00:00 2,0 0,5 6 3 15 8 WSW 1000,5 33 0,1
21.04.2018 02:00:00 2,0 0,1 6 3 10 6 S 1001,1 50 0,0
21.04.2018 01:00:00 1,6 0,1 3 1 5 3 SW 1001,8 50 0,0
21.04.2018 00:00:00 2,1 0,0 0 0 13 7 N 1002,2 50 0,0
20.04.2018 23:00:00 3,7 0,2 6 4 11 6 SW 1002,7 50 0,0
20.04.2018 22:00:00 3,4 0,1 0 0 11 6 N 1003,8 49 0,0
20.04.2018 21:00:00 4,7 -0,1 5 3 11 6 W 1004,4 50 0,0
20.04.2018 20:00:00 5,7 -1,0 5 3 15 8 W 1004,7 50 0,0
20.04.2018 19:00:00 7,1 -0,8 3 1 9 5 WNW 1005,2 50 0,0
20.04.2018 18:00:00 7,6 -0,9 4 2 20 11 W 1006,1 44 0,0
20.04.2018 17:00:00 8,5 -0,5 11 6 23 13 WNW 1007,0 45 0,0
20.04.2018 16:00:00 9,0 -0,6 8 4 23 12 WNW 1007,8 38 0,0
20.04.2018 15:00:00 8,7 -0,4 13 7 26 14 WNW 1008,9 47 0,0
20.04.2018 14:00:00 8,7 -0,4 14 8 32 17 W 1009,8 39 0,0
20.04.2018 13:00:00 8,4 0,1 9 5 27 15 W 1010,4 40 0,0
20.04.2018 12:00:00 8,0 0,5 12 7 24 13 W 1010,9 41 0,0
20.04.2018 11:00:00 7,0 0,7 9 5 28 15 WSW 1011,4 43 0,0
20.04.2018 10:00:00 7,6 1,4 8 4 20 11 W 1011,5 44 0,0
20.04.2018 09:00:00 6,6 3,2 3 2 13 7 NNW 1012,0 46 0,0
20.04.2018 08:00:00 5,1 3,4 8 5 13 7 WSW 1012,5 39 0,0
20.04.2018 07:00:00 3,5 2,9 0 0 9 5 N 1013,2 25 0,0
20.04.2018 06:00:00 1,8 1,8 5 3 13 7 SSW 1014,0 9 0,0
20.04.2018 05:00:00 1,3 1,2 4 2 8 4 S 1014,6 14 0,0
20.04.2018 04:00:00 1,3 0,9 0 0 13 7 N 1015,0 1,4 0,0
20.04.2018 03:00:00 3,0 2,3 6 3 15 8 S 1015,1 31 0,0
20.04.2018 02:00:00 3,3 2,6 10 5 16 8 S 1016,1 37 0,0
20.04.2018 01:00:00 3,3 2,7 7 4 13 7 SSE 1016,9 13 1,0
20.04.2018 00:00:00 3,6 2,6 6 3 13 7 SSE 1017,7 19 0,7
19.04.2018 23:00:00 3,8 2,3 6 3 10 5 SE 1018,8 5 1,8
19.04.2018 22:00:00 2,8 1,2 0 0 4 2 N 1020,2 29 0,0
19.04.2018 21:00:00 3,9 0,9 0 0 3 2 N 1020,7 44 0,0
19.04.2018 20:00:00 5,1 0,8 2 1 5 3 SSW 1021,1 38 0,0
19.04.2018 19:00:00 7,4 1,0 3 2 10 5 WNW 1021,6 50 0,0
19.04.2018 18:00:00 8,4 1,1 3 1 10 6 SW 1022,1 49 0,0
19.04.2018 17:00:00 9,5 1,4 5 3 14 7 WSW 1022,4 50 0,0
19.04.2018 16:00:00 10,9 0,9 5 3 18 10 W 1022,7 40 0,0
19.04.2018 15:00:00 10,0 1,1 10 5 18 10 WNW 1023,3 40 0,0
19.04.2018 14:00:00 9,8 1,2 7 4 15 8 NE 1023,5 39 0,0
19.04.2018 13:00:00 10,3 1,4 7 4 21 11 NW 1023,7 36 0,0
19.04.2018 12:00:00 9,8 1,7 9 5 24 13 NW 1023,5 29 0,0
19.04.2018 11:00:00 8,6 1,7 10 5 24 13 NW 1023,6 37 0,0
19.04.2018 10:00:00 6,1 1,0 6 3 11 6 ENE 1024,0 45 0,0
19.04.2018 09:00:00 4,6 1,1 3 2 13 7 NE 1024,2 50 0,0
19.04.2018 08:00:00 4,7 1,2 7 4 17 9 WNW 1023,8 50 0,0
19.04.2018 07:00:00 4,5 1,4 8 4 18 10 WNW 1023,6 50 0,0
19.04.2018 06:00:00 3,6 1,2 5 3 12 7 W 1023,3 50 0,0
19.04.2018 05:00:00 3,8 1,0 4 2 15 8 W 1022,8 50 0,0
19.04.2018 04:00:00 3,6 0,8 5 3 11 6 WSW 1022,6 50 0,0
19.04.2018 03:00:00 2,6 0,8 4 2 8 5 W 1022,3 44 0,0
19.04.2018 02:00:00 1,1 -0,8 0 0 6 4 N 1022,2 44 0,0
19.04.2018 01:00:00 0,1 -1,5 2 1 5 3 W 1022,0 35 0,0
19.04.2018 00:00:00 -0,2 -1,8 2 1 6 3 NE 1021,6 38 0,0
18.04.2018 23:00:00 0,9 -1,7 2 1 15 8 ESE 1020,8 49 0,0
18.04.2018 22:00:00 3,8 -1,0 6 4 13 7 WNW 1019,5 50 0,0
18.04.2018 21:00:00 3,7 -1,5 5 3 10 5 W 1019,1 50 0,0
18.04.2018 20:00:00 5,6 -1,3 3 2 14 8 W 1018,3 50 0,0
18.04.2018 19:00:00 7,5 -1,7 7 4 17 9 W 1017,5 47 0,0
18.04.2018 18:00:00 8,2 -1,9 8 4 16 9 W 1017,0 49 0,0
18.04.2018 17:00:00 8,6 -1,8 6 3 16 9 S 1016,4 46 0,0
18.04.2018 16:00:00 8,8 -2,5 10 5 21 11 S 1016,4 46 0,0
18.04.2018 15:00:00 9,8 -3,2 9 5 20 11 SSE 1016,3 46 0,0
18.04.2018 14:00:00 9,5 -3,4 11 6 18 10 S 1016,6 42 0,0
18.04.2018 13:00:00 9,5 -3,8 10 5 20 11 S 1016,4 41 0,0
18.04.2018 12:00:00 9,4 -3,9 9 5 16 9 S 1016,6 35 0,0
18.04.2018 11:00:00 7,9 -3,9 0 0 4 2 N 1017,2 36 0,0
18.04.2018 10:00:00 3,5 -4,5 3 2 6 3 E 1018,3 45 0,0
18.04.2018 09:00:00 1,5 -4,8 3 2 5 3 E 1018,7 47 0,0
18.04.2018 08:00:00 0,4 -4,6 0 0 4 2 N 1019,2 46 0,0
18.04.2018 07:00:00 -2,1 -5,1 0 0 3 1 N 1019,5 35 0,0
18.04.2018 06:00:00 -5,4 -5,9 0 0 4 2 N 1020,1 50 0,0
18.04.2018 05:00:00 -6,1 -6,9 0 0 3 2 N 1020,2 34 0,0
18.04.2018 04:00:00 -5,3 -6,0 2 1 6 3 ESE 1020,4 38 0,0
18.04.2018 03:00:00 -4,5 -5,3 4 2 5 3 ESE 1020,4 50 0,0
18.04.2018 02:00:00 -4,1 -5,1 0 0 3 2 N 1020,4 50 0,0
18.04.2018 01:00:00 -3,3 -4,6 3 1 3 2 ESE 1020,5 46 0,0
18.04.2018 00:00:00 -2,6 -4,5 2 1 4 2 E 1020,3 49 0,0
17.04.2018 23:00:00 -1,2 -4,4 0 0 1 1 N 1020,1 50 0,0
17.04.2018 22:00:00 0,7 -3,8 0 0 1 1 N 1019,7 50 0,0
17.04.2018 21:00:00 2,5 -2,8 0 0 3 2 N 1019,4 50 0,0
17.04.2018 20:00:00 5,8 -3,0 0 0 4 2 N 1018,4 47 0,0
17.04.2018 19:00:00 10,5 -4,0 0 0 5 3 N 1017,3 49 0,0
17.04.2018 18:00:00 10,6 -4,2 4 2 8 4 E 1017,3 44 0,0
17.04.2018 17:00:00 10,6 -4,2 5 3 9 5 E 1017,3 39 0,0
17.04.2018 16:00:00 12,0 -4,6 4 2 10 5 W 1017,2 43 0,0
17.04.2018 15:00:00 11,7 -4,5 4 2 10 6 W 1017,4 41 0,0
17.04.2018 14:00:00 11,0 -4,7 5 3 10 5 WSW 1017,6 41 0,0
17.04.2018 13:00:00 10,4 -4,0 3 2 8 5 E 1017,7 34 0,0
17.04.2018 12:00:00 8,3 -4,5 6 3 10 5 E 1018,2 34 0,0
17.04.2018 11:00:00 7,6 -4,8 5 3 10 5 NNE 1018,3 44 0,0
17.04.2018 10:00:00 7,1 -5,3 4 2 10 6 NW 1018,1 34 0,0
17.04.2018 09:00:00 3,8 -4,7 3 1 8 4 WNW 1018,5 40 0,0
17.04.2018 08:00:00 1,0 -5,3 0 0 4 2 N 1018,8 39 0,0
17.04.2018 07:00:00 -3,0 -6,1 3 2 6 3 ESE 1019,0 22 0,0
17.04.2018 06:00:00 -3,4 -6,0 2 1 6 4 ESE 1018,7 50 0,0
17.04.2018 05:00:00 -3,1 -5,7 3 2 6 3 E 1018,4 50 0,0
17.04.2018 04:00:00 -3,6 -5,9 0 0 5 3 N 1018,3 50 0,0
17.04.2018 03:00:00 -3,9 -5,6 3 1 5 3 ESE 1018,1 50 0,0

tt = Température de l'air
td = dewpoint
ff = Vitesse du vent
fx = gusts
dd = Direction du vent
ppp = reduced air pressure
vv = visibility
rr = Quantités de précipitations

stations d'obs. à proximité